{"data":{"norad_id":67468,"intl_designator":"2026-008Z","name":"STARLINK-36414","alt_names":[],"object_type":"PAYLOAD","status":"ACTIVE","operator":null,"country":"US","launch_date":"2026-01-14","launch_site_code":"AFETR","launch_vehicle":null,"mission":null,"orbit_class":"UNKNOWN","rcs_meters":null,"size_class":null,"mass_kg":null,"dimensions":null,"purposes":["comms"],"wikipedia_slug":null,"has_3d_model":false,"image_url":null,"decayed_at":null,"tle_current":{"epoch":"2026-09-19T05:18:49.677120Z","epoch_age_seconds":182728,"freshness":"STALE","line1":"1 67468U 26008Z   26262.22140830  .00006487  00000+0  24502-3 0  9995","line2":"2 67468  42.9994 191.9614 0001677 263.6907  96.3754 15.27581956 39178","mean_motion":15.27581956,"eccentricity":0.0001677,"inclination_deg":42.9994,"raan_deg":191.9614,"arg_perigee_deg":263.6907,"mean_anomaly_deg":96.3754,"bstar":0.00024502,"rev_number":3917,"period_min":94.266628009319,"perigee_km":481.89261915214,"apogee_km":484.19385900433,"semimajor_km":6861.1802390782,"source":"CELESTRAK","updated_at":"2026-09-20T09:00:43.553266Z"}}}